Gunnison, CO

8:18 PM MDT on April 26, 2017 (GMT -0600)
Gunnison County

Weather History for KGUC - December, 2013

Change the Weather History Date:

Saturday, December 7, 2013

  Actual Average Record
Temperature  
Mean Temperature 6 °F -  
Max Temperature 14 °F 27 °F 44 °F (2008)
Min Temperature -2 °F 3 °F -5 °F (2005)
Degree Days  
Heating Degree Days 59    
Moisture  
Dew Point -5 °F    
Average Humidity 61    
Maximum Humidity 93    
Minimum Humidity 25    
Precipitation  
Precipitation 0.05 in - - ()
Sea Level Pressure  
Sea Level Pressure 29.80 in    
Wind  
Wind Speed 1 mph (WSW)    
Max Wind Speed 9 mph    
Max Gust Speed -    
Visibility 6 miles    
Events      
Averages and records for this station are not official NWS values.
T = Trace of Precipitation, MM = Missing Value Source: NWS Daily Summary

Daily Weather History Graph

Daily Weather History Graph

Search for Another Location

Airport or City:

Trip Planner

Search our weather history database for the weather conditions in past years. The results will help you decide how hot, cold, wet, or windy it might be!

Date:

Astronomy

Dec. 07, 2013 Rise Set
Actual Time 7:12 AM MST 4:46 PM MST
Civil Twilight 6:42 AM MST 5:16 PM MST
Nautical Twilight 6:09 AM MST 5:49 PM MST
Astronomical Twilight 5:37 AM MST 6:21 PM MST
Moon 11:01 AM MST (12/7) 10:28 PM MST (12/7)
Length of Visible Light 10h 33m
Length of Day
9h 34m
Waxing Crescent, 30% of the Moon is Illuminated
Dec 7
Waxing Crescent
Dec 9
First Quarter
Dec 17
Full
Dec 25
Last Quarter
Jan 1
New

Hourly Weather History & Observations

Time (MST) Temp. Windchill Dew Point Humidity Pressure Visibility Wind Dir Wind Speed Gust Speed Precip Events Conditions
12:15 AM -2.2 °F - -13.0 °F 60% 30.05 in 10.0 mi Calm Calm - N/A   Clear
12:35 AM -0.4 °F -8.3 °F -5.8 °F 78% 30.04 in 10.0 mi ESE 3.5 mph - N/A   Clear
12:55 AM -0.4 °F - -29.2 °F 25% 30.03 in 10.0 mi Calm Calm - N/A   Clear
1:15 AM -0.4 °F -8.3 °F -27.4 °F 27% 30.02 in 10.0 mi East 3.5 mph - N/A   Clear
1:35 AM -0.4 °F - -23.8 °F 32% 30.02 in 10.0 mi Calm Calm - N/A   Clear
1:55 AM -0.4 °F - -23.8 °F 32% 30.02 in 10.0 mi Calm Calm - N/A   Scattered Clouds
2:15 AM -0.4 °F -8.3 °F -20.2 °F 39% 30.01 in 10.0 mi East 3.5 mph - N/A   Scattered Clouds
2:35 AM -0.4 °F - -18.4 °F 43% 30.00 in 10.0 mi Calm Calm - N/A   Clear
2:55 AM -0.4 °F - -16.6 °F 46% 30.00 in 10.0 mi Calm Calm - N/A   Clear
3:15 AM 1.4 °F - -9.4 °F 61% 30.00 in 10.0 mi Calm Calm - N/A   Clear
3:35 AM -0.4 °F - -14.8 °F 51% 29.99 in 10.0 mi Calm Calm - N/A   Clear
3:55 AM 1.4 °F - -14.8 °F 47% 29.98 in 10.0 mi Calm Calm - N/A   Partly Cloudy
4:15 AM -0.4 °F - -27.4 °F 27% 29.97 in 10.0 mi Calm Calm - N/A   Scattered Clouds
4:35 AM 1.4 °F - -23.8 °F 30% 29.96 in 10.0 mi Calm Calm - N/A   Mostly Cloudy
4:55 AM 1.4 °F - -22.0 °F 33% 29.94 in 10.0 mi Calm Calm - N/A   Overcast
5:15 AM 1.4 °F - -23.8 °F 30% 29.93 in 10.0 mi Calm Calm - N/A   Scattered Clouds
5:35 AM 1.4 °F - -18.4 °F 39% 29.93 in 10.0 mi Calm Calm - N/A   Scattered Clouds
5:55 AM 1.4 °F - -14.8 °F 47% 29.92 in 10.0 mi Calm Calm - N/A   Partly Cloudy
6:15 AM 1.4 °F - -7.6 °F 66% 29.91 in 10.0 mi Calm Calm - N/A   Clear
6:35 AM 1.4 °F - -9.4 °F 61% 29.91 in 10.0 mi Calm Calm - N/A   Scattered Clouds
6:55 AM 1.4 °F - -20.2 °F 36% 29.90 in 10.0 mi Calm Calm - N/A   Scattered Clouds
7:15 AM 1.4 °F -8.3 °F -16.6 °F 43% 29.90 in 10.0 mi NW 4.6 mph - N/A   Mostly Cloudy
7:35 AM 3.2 °F - -22.0 °F 30% 29.89 in 10.0 mi Calm Calm - N/A   Overcast
8:15 AM 3.2 °F - -18.4 °F 36% 29.88 in 10.0 mi Calm Calm - N/A   Overcast
8:35 AM 3.2 °F - -14.8 °F 43% 29.88 in 9.0 mi Calm Calm - N/A   Scattered Clouds
8:55 AM 5.0 °F - -7.6 °F 56% 29.88 in 10.0 mi Calm Calm - N/A   Mostly Cloudy
9:15 AM 5.0 °F - -5.8 °F 61% 29.88 in 10.0 mi Calm Calm - N/A   Overcast
9:35 AM 6.8 °F - 3.2 °F 85% 29.87 in 10.0 mi Calm Calm - N/A   Mostly Cloudy
9:55 AM 6.8 °F -6.9 °F -13.0 °F 40% 29.87 in 10.0 mi SW 9.2 mph - N/A   Scattered Clouds
10:15 AM 8.6 °F - -9.4 °F 44% 29.86 in 9.0 mi Calm Calm - N/A   Mostly Cloudy
10:35 AM 8.6 °F - -16.6 °F 31% 29.85 in 10.0 mi Calm Calm - N/A   Mostly Cloudy
10:55 AM 8.6 °F - -18.4 °F 28% 29.84 in 10.0 mi Calm Calm - N/A   Mostly Cloudy
11:15 AM 8.6 °F - -11.2 °F 40% 29.82 in 9.0 mi Calm Calm - N/A   Overcast
11:35 AM 10.4 °F 2.2 °F -0.4 °F 62% 29.80 in 5.0 mi West 4.6 mph - N/A   Overcast
12:15 PM 10.4 °F 2.2 °F 1.4 °F 67% 29.76 in 0.8 mi WSW 4.6 mph - N/A   Overcast
12:35 PM 10.4 °F 4.0 °F 1.4 °F 67% 29.75 in 1.0 mi West 3.5 mph - N/A   Overcast
12:55 PM 10.4 °F 2.2 °F 3.2 °F 73% 29.73 in 1.0 mi West 4.6 mph - N/A   Overcast
1:15 PM 10.4 °F 0.8 °F 3.2 °F 73% 29.72 in 1.2 mi WSW 5.8 mph - N/A   Overcast
1:35 PM 10.4 °F -0.4 °F 3.2 °F 73% 29.72 in 1.0 mi West 6.9 mph - N/A   Overcast
1:55 PM 10.4 °F 0.8 °F 3.2 °F 73% 29.70 in 0.5 mi West 5.8 mph - N/A   Overcast
2:15 PM 12.2 °F 2.9 °F 3.2 °F 67% 29.70 in 1.0 mi WSW 5.8 mph - N/A   Overcast
2:35 PM 12.2 °F 4.3 °F 3.2 °F 67% 29.69 in 1.0 mi SW 4.6 mph - N/A   Overcast
2:55 PM 12.2 °F 4.3 °F 3.2 °F 67% 29.69 in 0.8 mi SW 4.6 mph - N/A   Overcast
3:15 PM 12.2 °F 6.1 °F 3.2 °F 67% 29.68 in 0.8 mi West 3.5 mph - N/A   Overcast
3:35 PM 12.2 °F 6.1 °F 5.0 °F 73% 29.68 in 1.0 mi WSW 3.5 mph - N/A   Overcast
3:55 PM 12.2 °F 6.1 °F 6.8 °F 79% 29.68 in 0.8 mi West 3.5 mph - N/A   Overcast
4:15 PM 12.2 °F - 8.6 °F 85% 29.68 in 1.0 mi Calm Calm - N/A   Overcast
4:35 PM 12.2 °F - 6.8 °F 79% 29.67 in 1.2 mi Calm Calm - N/A   Overcast
5:15 PM 12.2 °F 6.1 °F 8.6 °F 85% 29.68 in 1.5 mi SSW 3.5 mph - N/A   Overcast
5:55 PM 12.2 °F 6.1 °F 8.6 °F 85% 29.68 in 2.0 mi SSE 3.5 mph - N/A   Overcast
6:15 PM 12.2 °F - 8.6 °F 85% 29.67 in 2.5 mi Calm Calm - N/A   Overcast
6:35 PM 14.0 °F - 8.6 °F 79% 29.67 in 2.5 mi Calm Calm - N/A   Overcast
6:55 PM 14.0 °F - 8.6 °F 79% 29.67 in 1.2 mi Calm Calm - N/A   Overcast
7:15 PM 14.0 °F - 8.6 °F 79% 29.67 in 1.2 mi Calm Calm - 0.01 in   Overcast
7:35 PM 14.0 °F - 10.4 °F 86% 29.66 in 1.5 mi Calm Calm - 0.01 in   Overcast
7:55 PM 14.0 °F - 10.4 °F 86% 29.66 in 1.8 mi Calm Calm - 0.01 in   Overcast
8:15 PM 14.0 °F - 8.6 °F 79% 29.65 in 1.5 mi Calm Calm - 0.01 in   Overcast
8:35 PM 14.0 °F - 10.4 °F 86% 29.65 in 1.5 mi Calm Calm - 0.01 in   Overcast
8:55 PM 14.0 °F - 8.6 °F 79% 29.64 in 1.5 mi Calm Calm - 0.01 in   Overcast
9:15 PM 14.0 °F - 8.6 °F 79% 29.64 in 1.8 mi Calm Calm - N/A   Overcast
9:35 PM 14.0 °F - 10.4 °F 86% 29.64 in 1.2 mi Calm Calm - N/A   Overcast
9:55 PM 14.0 °F - 10.4 °F 86% 29.63 in 1.2 mi Calm Calm - N/A   Overcast
10:15 PM 14.0 °F - 8.6 °F 79% 29.63 in 1.8 mi Calm Calm - 0.01 in   Overcast
10:55 PM 14.0 °F - 10.4 °F 86% 29.63 in 1.0 mi Calm Calm - 0.01 in   Overcast
11:15 PM 14.0 °F - 10.4 °F 86% 29.63 in 1.0 mi Calm Calm - 0.01 in   Overcast
11:35 PM 14.0 °F - 6.8 °F 73% 29.61 in 5.0 mi Calm Calm - 0.02 in   Mostly Cloudy
11:55 PM 14.0 °F - 12.2 °F 93% 29.61 in 1.2 mi Calm Calm - 0.02 in   Overcast